Zurück zum Katalog

BD-21

AktivNavigationMEO
NORAD 41315·PAYLOAD·🇨🇳 China

Gestartet Feb 1, 2016 von Xichang Satellite Launch Center

Loading…

Nächste Überflüge (nächste 24 Stunden)

TLE

AktuellSource: Space-Track

Epoche: Sep 12, 2026, 00:27 UTC

1 41315U 16006A   26255.01900817 -.00000038  00000-0  00000-0 0  9995
2 41315  56.7856  60.7838 0002296 298.9998  60.9964  1.86230776 72214

Verfolge BD-21 in Echtzeit mit AllMySat

Download on the App Store